Hourly Data Report for October 02, 2017

All times are specified in Local Standard Time (LST). Add 1 hour to adjust for Daylight Saving Time where and when it is observed.

HIGH LEVEL
ALBERTA

58°37'18.000" N
117°09'53.000" W
338.00 m
3073140
71066
YOJ

Download Data

Hourly Data (October 2017)
Hourly Data Report for October 2, 2017
Temp Definition
°C
Dew Point Temp Definition
°C
Rel Hum Definition
%
Wind Dir Definition
10's deg

Wind Spd Definition
km/h
Visibility Definition
km
Stn Press Definition
kPa
Hmdx Definition


Wind Chill Definition


Weather Definition


TIME
00:00 Legend Double Dagger 1.5 -5.3 61 34 11 16.1 98.83     LegendNANA
01:00 Legend Double Dagger 1.9 -5.0 60 34 9 16.1 98.87     LegendNANA
02:00 Legend Double Dagger 1.0 -4.8 65 34 9 16.1 98.89     LegendNANA
03:00 Legend Double Dagger -1.0 -4.9 75 33 9 16.1 98.95   -4 LegendNANA
04:00 Legend Double Dagger -1.9 -5.1 79 32 8 16.1 99.00   -5 LegendNANA
05:00 Legend Double Dagger -2.2 -5.2 80 33 5 16.1 99.04   -4 LegendNANA
06:00 Legend Double Dagger -4.3 -6.2 87   0 16.1 99.08     LegendNANA
07:00 Legend Double Dagger -4.6 -5.9 90 LegendMM 4 16.1 99.11   -6 LegendNANA
08:00 Legend Double Dagger -3.9 -5.5 89   0 16.1 99.13     LegendNANA
09:00 Legend Double Dagger 0.2 -3.5 76   0 16.1 99.16     LegendNANA
10:00 Legend Double Dagger 4.0 -4.2 55   0 16.1 99.12     LegendNANA
11:00 Legend Double Dagger 4.9 -4.4 51 LegendMM 5 16.1 99.10     LegendNANA
12:00 Legend Double Dagger 6.8 -3.5 48 1 9 16.1 99.07     LegendNANA
13:00 Legend Double Dagger 7.6 -3.5 45 33 11 16.1 99.03     LegendNANA
14:00 Legend Double Dagger 8.7 -4.5 39 32 11 16.1 98.96     LegendNANA
15:00 Legend Double Dagger 9.1 -4.2 39 36 13 16.1 98.92     LegendNANA
16:00 Legend Double Dagger 9.5 -4.0 38   0 16.1 98.82     LegendNANA
17:00 Legend Double Dagger 9.1 -3.8 40 LegendMM 5 16.1 98.74     LegendNANA
18:00 Legend Double Dagger 7.7 -3.5 45   0 16.1 98.72     LegendNANA
19:00 Legend Double Dagger 5.1 -4.2 51 LegendMM 4 16.1 98.68     LegendNANA
20:00 Legend Double Dagger 3.9 -4.1 56 17 8 16.1 98.61     LegendNANA
21:00 Legend Double Dagger 2.5 -4.1 62   0 16.1 98.59     LegendNANA
22:00 Legend Double Dagger 1.3 -4.2 67   0 16.1 98.50     LegendNANA
23:00 Legend Double Dagger -1.4 -5.4 74   0 16.1 98.41     LegendNANA

Notes on Data Quality.

Legend

  • E = Estimated
  • M = Missing
  • NA = Not Available
  • ‡ = Partner data that is not subject to review by the National Climate Archives
Date modified: